Regional Weather Roundup
Issued by NWS

Home | Current Version | Previous Version | Graphics & Text | Print | Product List | Glossary On
Versions: 1 2 3 4 5 6 7 8 9 10 11 12 13 14 15 16 17 18 19 20 21 22 23 24 25 26 27 28 29 30 31 32 33 34 35 36 37 38 39 40 41 42 43 44 45 46 47 48 49 50
000
ASUS43 KBIS 311620
RWRND

NORTH DAKOTA REGIONAL WEATHER ROUNDUP
NATIONAL WEATHER SERVICE BISMARCK ND
1000 AM CST SAT JAN 31 2015

NOTE: "FAIR" INDICATES FEW OR NO CLOUDS BELOW 12,000 FEET WITH NO
SIGNIFICANT WEATHER AND/OR OBSTRUCTIONS TO VISIBILITY.


NDZ001>003-009>011-017-311700-
NORTHWEST NORTH DAKOTA

CITY           SKY/WX    TMP DP  RH WIND       PRES   REMARKS
WILLISTON      CLOUDY    13   7  77 E20       30.26R WCI  -5
MINOT          LGT SNOW   6   0  76 NE14      30.35S WCI -11
MINOT AFB      LGT SNOW   5   1  85 NE16      30.37R VSB 1   WCI -14
$$

NDZ018>021-031>035-040>046-311700-
SOUTHWEST NORTH DAKOTA

CITY           SKY/WX    TMP DP  RH WIND       PRES   REMARKS
BISMARCK       LGT SNOW  13   9  84 NE16      30.28R FOG     WCI  -3
DICKINSON      FOG       20  17  88 E16G24    30.11S VSB 3/4 WCI   6
GARRISON         N/A      8   0  69 E15       30.30R WCI  -9
HETTINGER ARPT FOG       20  18  92 E16       30.10F VSB 1/2 WCI   6
$$

NDZ004>008-012>016-024-026-027-054-311700-
NORTHEAST NORTH DAKOTA

CITY           SKY/WX    TMP DP  RH WIND       PRES   REMARKS
GRAND FORKS    CLOUDY     4  -6  63 N17G25    30.45R WCI -16
GRND FRKS AFB  CLOUDY     2  -7  66 N17G26    30.45R WCI -18
DEVILS LAKE    CLOUDY     3  -6  66 NE18      30.38R WCI -17
$$

NDZ022-023-025-028>030-036>039-047>053-311700-
SOUTHEAST NORTH DAKOTA

CITY           SKY/WX    TMP DP  RH WIND       PRES   REMARKS
FARGO          SUNNY     10  -1  61 N21       30.36R WCI  -9
JAMESTOWN      MOSUNNY   10   3  73 NE17      30.31R WCI  -8
$$



USA.gov is the U.S. government's official web portal to all federal, state and local government web resources and services.